星链-3592 (STARLINK-3592 )

导读

STARLINK-3592是美国SpaceX公司星链(Starlink)星座中的一颗互联网卫星,于2022年2月25日发射。星链项目旨在低地轨道构建全球卫星互联网,为基础设施匮乏地区提供高速低延迟宽带服务。该卫星属于星链早期现役批次,配备氪离子推进系统,可自主完成轨道维持与避碰,依靠相控阵天线提供宽带接入服务,服务全球偏远地区、应急通信等场景,助力星链星座组网实现全球网络覆盖。

基本信息
目录编号:
51801
目录名称:
STARLINK-3592
国际标识:
2022-017AK
轨道中心:
EARTH
卫星名称:
星链-3592
卫星全名:
星链-3592 (STARLINK-3592 )
卫星状态:
在轨 (已飞行1573 天)
发射日期:
2022-02-25 UTC
国别 :
美国 (US)
星等 :
--
轨道信息
数据来源 国际轨道数据 AOE轨道数据
星历时间 2026-06-17T20:14:20+0800
5小时前
查看轨道信息
2026-06-13T06:00:00+0800
4天前
查看轨道信息
半长轴 6917.911km 6917.926km
偏心率 0.0001282 0.0001165
轨道倾角 53.160° 53.158°
近地点辐角 85.422° 74.351°
升交点赤经 260.910° 281.561°
平近点角 274.692° 162.265°
近地点 538.887km 538.983km
远地点 540.661km 540.595km
周期 95.438分钟 95.438分钟
每日圈数 15.088302 15.088254
详细信息
固有亮度:
5
最大亮度:
2.5
卫星平台:
Starlink v1.5
覆盖范围:
全球
运营商:
太空探索技术公司
运营商所在国:
美国
制造商(研发单位):
太空探索技术公司
制造商所在国:
美国
使用方式:
暂无
卫星简介
星链(Starlink)计划是由太空探索技术公司(SpaceX)提出的一个巨型低轨卫星互联网星座项目,计划在2019年至2024年间在太空搭建由约1.2万颗卫星组成的“星链”网络,其中1584颗将部署在地球上空550千米处的近地轨道,并从2020年开始工作。该卫星仍在工作。
2D轨道图
3D轨道图
轨道高度分析图
轨道倾角分析图
轨道综合分析图
查看轨道综合分析图